Weather in Apucarana

Brazil     23°33′18″S   51°27′56″W
temp.,
°C
wind,
m/s
gust,
m/s
humid.,
%
clouds,
%
prec.,
mm/h
press.,
hPa
HPBL,
m
5 march, fri
fri500:00+19nnw41099100 2.1 1011493
03:00+19nnw51299100 4.6 1010580
06:00+19nw4999100 5.8 1008459
09:00+19nw4999100 7.6 1011481
12:00+20nw4697100 1.4 1010398
15:00+23wnw5792100 2.1 1008681
18:00+21wnw3695100 0.8 1006511
21:00+19wnw129895 0.9 100930
6 march, sat
sat600:00+18nw129926 0.0 100836
03:00+18nw129945 0.0 100844
06:00+17wnw119991 0.0 100823
09:00+21wnw239395 0.0 1010345
12:00+23wnw348776 1.6 1009704
15:00+23wnw348974 4.4 1007674
18:00+22w239467 1.4 1007361
21:00+19wnw119677 2.1 100923
7 march, sun
sun700:00+18nnw119471 0.1 101023
03:00+18nne129565 0.1 100923
06:00+17ene129725 0.0 101026
09:00+21ne229319 0.1 1012343
12:00+24n128552 3.7 1011600
15:00+24w228633 7.5 1009613
18:00+23ssw11902 3.0 1008182
21:00+19ese11901 3.5 101123
8 march, mon
mon800:00+18e12930 0.0 101224
03:00+18e48983 0.0 1011255
06:00+17ene379850 0.0 1012220
09:00+20e349439 0.0 1014278
12:00+24wnw018441 1.4 1013560
15:00+24wsw238027 3.6 1010768
18:00+23sw23862 0.3 1009119
21:00+19ese11911 0.5 101123
9 march, tue
tue900:00+18ese11880 0.0 101123
03:00+17e22950 0.0 101041
06:00+17e25982 0.0 1011130
09:00+21ene24904 0.0 1012266
12:00+25nnw21720 1.4 1011972
15:00+25w34753 2.3 1008984
18:00+23wsw358612 1.0 1007188
21:00+19w11896 1.0 100923